STARLINK-4309, 53066

Orbit data source: Space-Track

STARLINK-4309, 53066 is a payload satellite owned by SpaceX/Seattle (US) in SSO that was launched on Mon, 11 Jul 2022 UTC via an FALCON 9 launch vehicle from the Air Force Western Test Range (AFWTR). Payload-class satellites include a variety of spacecraft equipped with specific instruments for various scientific and technological missions. These include communications satellites like Starlink; space stations such as the ISS; scientific satellites like the Hubble; Earth observation satellites from companies like Planet Labs, Umbra, and HawkEye 360; GPS; miniature CubeSats for education and research; and military/defense satellites.

Loading next visibility...
Identifier
53066, 2022-077Z
Orbit
SSO
Country
Flag of USUS
Related business
Manufacturer
SpaceX/Seattle
Mission
Operational Commercial Communications
Bus & Motor
STARLINK, Unknown motor
Mass
297 kg wet, ~275 kg dry
Launch date (UTC)
2022-07-11 (3 years ago)
Launch vehicle
FALCON 9
Launch site
Air Force Western Test Range (AFWTR)
Object type
Payload
Rocket body
Debris
Shape & HBR
Box + 1 Pan, 10.1 m
Radar Cross Section
13.562 m², Large (>1 m²)

Expand to show TLE details & history
Last TLE update: 22 hours ago

TLE from 22 hours ago
0 STARLINK-4309
1 53066U 22077Z   25348.75941290  .00003323  00000-0  26307-3 0  9999
2 53066  97.6006 167.0730 0001683  76.2569 283.8843 15.01267225188179
Epoch: 2025-12-14T18:13Z
TLE epoch observation values (Epoch: 2025-12-14T18:13:33.274Z)
Latitude
0.00001°
Longitude
170.01664°
Altitude
565.767 km
Speed
7.578 km/s
True Right ascension
11h 08m 17s
True Declination
0° 00' 00"
Sunlit
Object was in daylight at epoch
Visualization orbit readout
Latitude
Unknown
Longitude
Unknown
Altitude
Unknown
Speed
Unknown
Apparent Right ascension
Unknown
Apparent Declination
Unknown
Sunlit
N/A
Visualization observer readout
Local Sidereal Time
15:08:56
Azimuth
Unknown
Elevation
Unknown
Doppler factor
Unknown
Orbital elements
Apogee altitude
561.154 km
Perigee altitude
558.819 km
Semi-major axis
6,938.124 km
Eccentricity
0.00017
Inclination
97.6006°
RAAN
167.073°
Arg. of periapsis
76.2569°
True anomaly
283.86558°
Mean anomaly
283.8843°
Eccentric anomaly
283.87494°
Mean motion
3.75561 °/min
Orbital period
95.86 mins
BSTAR
0.00026307
Loading maneuver chart data...
Computing Atmospheric mass density...
Loading historical data...
Loading historical data...
Loading historical data...
Loading historical data...
Loading historical data...
Loading historical data...
Loading historical data...

Documentation

Showing up to 5 results
|